[[{"header":{"parameterUnit":"m.s-1","parameterCategory":1,"la1":30.2991,"la2":30.254,"lo1":-89.0895,"lo2":-89.0444,"dy":0.0017,"dx":0.0017,"nx":28,"ny":28,"refTime":"2024-02-18T03:00:00:Z","depth":0,"parameterNumber":2,"parameterNumberName":"U-component_of_WINDS"},"data":[0,0,0,0,0,0,0,0,0,0,0,0,0,0,0,0,0,0,0,0,0,0,0,0,0,0,0,0,0,0,0,0,0,0,0,0,0,0,0,0,0,0,0,0,0,0,0,0,0,0,0,0,0,0,0,0,0,0,-1.2038,-1.2039,0,-1.214,-1.2141,-1.2142,-1.214,-1.2139,-1.2138,-1.2136,-1.224,-1.2244,-1.2248,0,0,0,0,0,0,0,0,0,0,0,0,0,-1.1842,-1.1846,-1.2038,-1.204,-1.2041,-1.2139,-1.2141,-1.2142,-1.2141,-1.2139,-1.2137,-1.2136,-1.2239,-1.2243,-1.2248,0,0,0,0,0,0,0,0,0,0,0,0,0,-1.1934,-1.1847,-1.2038,-1.2052,-1.2054,-1.2139,-1.2141,-1.2143,-1.2141,-1.2139,-1.2137,-1.2135,-1.2237,-1.2243,-1.2249,-1.2327,0,0,-1.2267,-1.227,0,0,0,0,0,0,0,0,-1.1929,-1.1941,-1.2049,-1.2051,-1.2054,-1.2125,-1.211,-1.2204,-1.2141,-1.2108,-1.2136,-1.2134,-1.2203,-1.2212,-1.2235,-1.2332,-1.2336,-1.2268,-1.2271,-1.2274,-1.2276,0,0,0,0,0,0,0,-1.1922,-1.1937,-1.2078,-1.205,-1.2053,-1.2053,-1.2063,-1.2128,-1.2166,-1.2111,-1.2111,-1.2123,-1.2204,-1.223,-1.2238,-1.2338,-1.2268,-1.2273,-1.2277,-1.2279,-1.2502,-1.2504,0,0,0,0,0,0,-1.1913,-1.1931,-1.2075,-1.2081,-1.1985,-1.2058,-1.207,-1.2104,-1.2165,-1.2172,-1.2124,-1.2122,-1.222,-1.2231,-1.2242,-1.2337,-1.2274,-1.228,-1.2283,-1.25,-1.2503,-1.2505,0,0,0,0,0,0,-1.1909,-1.1926,-1.2071,-1.2006,-1.2025,-1.2063,-1.2102,-1.2107,-1.2133,-1.2176,-1.2182,-1.2143,-1.2219,-1.2233,-1.2305,-1.2341,-1.2282,-1.2288,-1.2497,-1.2501,-1.2504,-1.2529,0,0,0,0,0,0,-1.1903,-1.1924,-1.1955,-1.2007,-1.2028,-1.2134,-1.2104,-1.2111,-1.2143,-1.2141,-1.2195,-1.2202,-1.2219,-1.2296,-1.2311,-1.2348,-1.2292,-1.2494,-1.2499,-1.2503,-1.2525,-1.2533,-1.2539,0,0,0,0,0,-1.1896,-1.1958,-1.1957,-1.1974,-1.2067,-1.2136,-1.2148,-1.2166,-1.2146,-1.2177,-1.2204,-1.22,-1.2334,-1.2304,-1.2321,-1.236,-1.2492,-1.2497,-1.2502,-1.2522,-1.2531,-1.2539,0,0,0,0,0,0,-1.1909,-1.1965,-1.1964,-1.2045,-1.2085,-1.2135,-1.2175,-1.2175,-1.2223,-1.2219,-1.2239,-1.2251,-1.2324,-1.2348,-1.2314,-1.2438,-1.241,-1.2419,-1.2419,-1.2429,-1.2436,-1.2429,-1.2298,0,0,0,0,0,-1.1921,-1.1973,-1.2018,-1.2085,-1.2105,-1.2137,-1.2167,-1.2177,-1.222,-1.2238,-1.227,-1.2312,-1.2364,-1.2397,-1.2447,-1.2528,-1.254,-1.2563,-1.257,-1.2575,-1.2583,-1.2628,-1.2639,-1.2522,-1.2522,-1.2522,0,0,-1.1947,-1.1984,-1.2015,-1.2088,-1.2121,-1.2174,-1.2151,-1.2208,-1.2247,-1.2246,-1.2317,-1.2342,-1.239,-1.2467,-1.2503,-1.249,-1.2618,-1.2582,-1.2586,-1.2591,-1.2634,-1.2645,-1.2655,-1.2526,-1.2525,-1.2524,0,0,-1.2021,-1.2054,-1.2113,-1.2146,-1.2196,-1.2216,-1.223,-1.228,-1.2297,-1.2368,-1.2368,-1.2415,-1.2503,-1.2537,-1.2566,-1.2651,-1.2649,-1.2666,-1.2704,-1.2747,-1.2757,-1.2765,-1.2796,-1.2807,-1.2674,-1.2674,-1.2674,0,-1.2047,-1.2127,-1.2143,-1.2201,-1.2233,-1.2234,-1.2294,-1.2325,-1.2388,-1.241,-1.2395,-1.2505,-1.2537,-1.2623,-1.2643,-1.2666,-1.2683,-1.2661,-1.2754,-1.2762,-1.277,-1.28,-1.2812,-1.2675,-1.2675,-1.2675,-1.2675,0,-1.2156,-1.2211,-1.2253,-1.2314,-1.2351,-1.2409,-1.2434,-1.2469,-1.2475,-1.2496,-1.2568,-1.2607,-1.2664,-1.2684,-1.2691,-1.277,-1.2761,-1.275,-1.2723,-1.2783,-1.2811,-1.2823,-1.2678,-1.2677,-1.2677,-1.2676,0,0,-1.2244,-1.2313,-1.2328,-1.2356,-1.241,-1.2453,-1.251,-1.2566,-1.2596,-1.2638,-1.2687,-1.2761,-1.275,-1.2783,-1.2793,-1.2831,-1.2897,-1.2815,-1.2816,-1.283,-1.2987,-1.2996,-1.3009,-1.2895,-1.2897,-1.2899,-1.2983,0,-1.2325,-1.2428,-1.2444,-1.2534,-1.2585,-1.2586,-1.2636,-1.2674,-1.2695,-1.2741,-1.2764,-1.2816,-1.2798,-1.2817,-1.2855,-1.2881,-1.2929,-1.2875,-1.2941,-1.2943,-1.2931,-1.3024,-1.3034,-1.3112,-1.2994,-1.2996,-1.2997,0,-1.2434,-1.248,-1.2575,-1.2622,-1.2644,-1.2689,-1.2741,-1.2785,-1.2828,-1.284,-1.2876,-1.2881,-1.294,-1.2909,-1.2991,-1.2954,-1.2982,-1.2998,-1.3002,-1.301,-1.2975,-1.3036,-1.3137,-1.3149,-1.3015,-1.3013,-1.3012,0,-1.2489,-1.2575,-1.2643,-1.2666,-1.2723,-1.2754,-1.2779,-1.282,-1.2852,-1.2897,-1.2918,-1.2969,-1.2998,-1.3037,-1.3056,-1.3031,-1.3137,-1.3107,-1.3149,-1.3149,-1.3173,-1.3171,-1.3281,-1.3188,-1.3188,-1.3187,-1.3187,0,-1.2579,-1.2638,-1.2669,-1.2711,-1.2776,-1.2793,-1.2857,-1.2881,-1.2917,-1.2964,-1.2966,-1.301,-1.3031,-1.3078,-1.3092,-1.3158,-1.317,-1.3182,-1.3186,-1.3183,-1.3182,-1.3203,-1.3198,-1.3191,-1.319,-1.3189,-1.3189,0,-1.2653,-1.2676,-1.2751,-1.2797,-1.281,-1.2856,-1.2896,-1.2937,-1.2956,-1.3015,-1.303,-1.3061,-1.3115,-1.3137,-1.3204,-1.3214,-1.329,-1.3288,-1.3276,-1.3277,-1.3318,-1.3315,-1.3447,-1.3465,-1.3358,-1.3359,-1.336,0,-1.271,-1.2755,-1.2806,-1.2837,-1.2863,-1.2914,-1.2946,-1.2964,-1.2998,-1.305,-1.3084,-1.3138,-1.3183,-1.327,-1.3299,-1.335,-1.335,-1.3393,-1.3358,-1.3354,-1.3352,-1.335,-1.3355,-1.34,-1.3401,-1.3402,-1.3403,0,-1.2808,-1.2817,-1.2865,-1.2916,-1.2955,-1.2996,-1.3036,-1.3062,-1.3085,-1.3123,-1.3179,-1.3214,-1.3281,-1.3336,-1.3388,-1.3412,-1.3412,-1.3413,-1.3426,-1.3424,-1.3416,-1.3422,-1.3295,-1.3411,-1.341,-1.3409,-1.3409,-1.3409,-1.2876,-1.2917,-1.2959,-1.3011,-1.3043,-1.308,-1.3121,-1.3145,-1.3192,-1.3249,-1.3256,-1.3316,-1.3356,-1.3426,-1.3453,-1.35,-1.3489,-1.3507,-1.3512,-1.3516,-1.352,-1.3406,-1.3509,-1.3509,-1.3509,-1.3509,-1.3509,0,-1.2976,-1.3003,-1.3051,-1.3107,-1.3148,-1.3143,-1.3186,-1.3221,-1.3274,-1.3312,-1.3356,-1.3419,-1.3471,-1.3503,-1.3555,-1.3587,-1.3588,-1.36,-1.3599,-1.3604,-1.3526,-1.3511,-1.3598,-1.3598,-1.3598,-1.3598,-1.3598,-1.3598,-1.3033,-1.3101,-1.3114,-1.3197,-1.3223,-1.3283,-1.3308,-1.3342,-1.3372,-1.3444,-1.3487,-1.3507,-1.3542,-1.3597,-1.3644,-1.3652,-1.3671,-1.3685,-1.3692,-1.3619,-1.361,-1.3601,-1.3587,-1.3689,-1.3689,-1.3767,-1.3767,-1.3768]},{"header":{"parameterUnit":"m.s-1","parameterCategory":1,"la1":30.2991,"la2":30.254,"lo1":-89.0895,"lo2":-89.0444,"dy":0.0017,"dx":0.0017,"nx":28,"ny":28,"refTime":"2024-02-18T03:00:00:Z","depth":0,"parameterNumber":3,"parameterNumberName":"V-component_of_WINDS"},"data":[0,0,0,0,0,0,0,0,0,0,0,0,0,0,0,0,0,0,0,0,0,0,0,0,0,0,0,0,0,0,0,0,0,0,0,0,0,0,0,0,0,0,0,0,0,0,0,0,0,0,0,0,0,0,0,0,0,0,-8.0085,-8.0086,0,-8.0161,-8.0162,-8.0162,-8.0078,-8.0075,-8.0071,-8.0068,-8.0139,-8.0144,-8.0149,0,0,0,0,0,0,0,0,0,0,0,0,0,-7.986,-7.9865,-8.0085,-8.0086,-8.0087,-8.0161,-8.0162,-8.0163,-8.0078,-8.0074,-8.0071,-8.0067,-8.0138,-8.0144,-8.0149,0,0,0,0,0,0,0,0,0,0,0,0,0,-7.9949,-7.9866,-8.0085,-8.0054,-8.0052,-8.016,-8.0162,-8.0163,-8.0079,-8.0074,-8.007,-8.0065,-8.0136,-8.0143,-8.015,-8.0291,0,0,-8.0173,-8.0176,0,0,0,0,0,0,0,0,-7.9944,-7.9957,-8.0057,-8.0056,-8.0054,-8.0105,-8.0108,-8.0206,-8.008,-8.0069,-8.0068,-8.0063,-8.0131,-8.0139,-8.0163,-8.0294,-8.0297,-8.0173,-8.0178,-8.0181,-8.0183,0,0,0,0,0,0,0,-7.9938,-7.9954,-8.0115,-8.0059,-8.0057,-8.0034,-8.0041,-8.0127,-8.0126,-8.0069,-8.0063,-8.0074,-8.013,-8.0157,-8.0164,-8.0299,-8.0173,-8.018,-8.0184,-8.0187,-8.0549,-8.0554,0,0,0,0,0,0,-7.9936,-7.9949,-8.0112,-8.0117,-7.9986,-8.0042,-8.005,-8.0093,-8.0125,-8.0125,-8.0078,-8.007,-8.0146,-8.0156,-8.0167,-8.0334,-8.0181,-8.0188,-8.0192,-8.0544,-8.055,-8.0556,0,0,0,0,0,0,-7.9932,-7.9952,-8.0109,-8.0032,-8.005,-8.0051,-8.01,-8.0097,-8.0124,-8.0131,-8.013,-8.0106,-8.0143,-8.0156,-8.0261,-8.0335,-8.0191,-8.0198,-8.0537,-8.0546,-8.0553,-8.0669,0,0,0,0,0,0,-7.9926,-7.9951,-8.0006,-8.0034,-8.0054,-8.0205,-8.0105,-8.0102,-8.0138,-8.0128,-8.0157,-8.0157,-8.014,-8.0251,-8.0269,-8.0342,-8.0203,-8.0531,-8.0541,-8.055,-8.0659,-8.068,-8.0699,0,0,0,0,0,-7.9918,-8.0034,-8.0009,-8.0029,-8.0124,-8.0209,-8.0221,-8.0201,-8.0144,-8.0199,-8.0203,-8.0156,-8.0324,-8.0262,-8.0281,-8.0359,-8.0526,-8.0538,-8.055,-8.065,-8.0676,-8.0698,0,0,0,0,0,0,-8.0012,-8.0037,-8.001,-8.0138,-8.0173,-8.0195,-8.0263,-8.0229,-8.0278,-8.0266,-8.0237,-8.0244,-8.0356,-8.0368,-8.0298,-8.0497,-8.0416,-8.0432,-8.0485,-8.051,-8.053,-8.0524,-8.0209,0,0,0,0,0,-8.0048,-8.0118,-8.0135,-8.0247,-8.0266,-8.0262,-8.0298,-8.028,-8.0314,-8.0327,-8.0339,-8.0371,-8.0431,-8.0471,-8.0526,-8.066,-8.0665,-8.0723,-8.0742,-8.0759,-8.0773,-8.0844,-8.087,-8.0594,-8.0594,-8.0594,0,0,-8.0123,-8.0145,-8.019,-8.0267,-8.0291,-8.0362,-8.0274,-8.0353,-8.0405,-8.0338,-8.0439,-8.0449,-8.0483,-8.0603,-8.0656,-8.0616,-8.085,-8.0774,-8.0787,-8.0792,-8.0859,-8.0885,-8.0908,-8.0602,-8.0601,-8.06,0,0,-8.0295,-8.032,-8.0416,-8.0443,-8.0482,-8.0479,-8.0502,-8.053,-8.0535,-8.0636,-8.0587,-8.0647,-8.0751,-8.0778,-8.0805,-8.0988,-8.0947,-8.1007,-8.111,-8.118,-8.1202,-8.1221,-8.1286,-8.131,-8.1021,-8.1021,-8.1022,0,-8.0382,-8.049,-8.0469,-8.0552,-8.0586,-8.0532,-8.0628,-8.0654,-8.0708,-8.0733,-8.0687,-8.0817,-8.0836,-8.0962,-8.1007,-8.103,-8.1055,-8.1003,-8.1201,-8.122,-8.1237,-8.1299,-8.1324,-8.1028,-8.1028,-8.1027,-8.1026,0,-8.0595,-8.067,-8.0743,-8.08,-8.0842,-8.0931,-8.0922,-8.0967,-8.0945,-8.0946,-8.1049,-8.1071,-8.113,-8.1158,-8.1136,-8.1281,-8.1255,-8.1206,-8.1123,-8.1271,-8.1329,-8.1352,-8.1039,-8.1036,-8.1034,-8.1032,0,0,-8.0828,-8.0874,-8.0901,-8.0926,-8.0966,-8.1022,-8.1108,-8.1169,-8.1208,-8.1247,-8.1318,-8.1408,-8.1363,-8.1394,-8.1374,-8.1436,-8.158,-8.1379,-8.1379,-8.1416,-8.174,-8.1777,-8.1805,-8.1553,-8.1558,-8.1561,-8.1737,0,-8.1001,-8.1154,-8.1138,-8.1282,-8.1351,-8.13,-8.1375,-8.1406,-8.1409,-8.1466,-8.1468,-8.1533,-8.1469,-8.1487,-8.1546,-8.155,-8.1645,-8.1537,-8.1617,-8.162,-8.1611,-8.1835,-8.1874,-8.204,-8.176,-8.1764,-8.1766,0,-8.1224,-8.1274,-8.1427,-8.1457,-8.1485,-8.1553,-8.1607,-8.1663,-8.1697,-8.1694,-8.173,-8.17,-8.1785,-8.1702,-8.1817,-8.1744,-8.1776,-8.1783,-8.1789,-8.1795,-8.1702,-8.1848,-8.2092,-8.2117,-8.1802,-8.1799,-8.1796,0,-8.1379,-8.1484,-8.1589,-8.1612,-8.165,-8.1699,-8.1716,-8.1746,-8.1783,-8.183,-8.1853,-8.1908,-8.1938,-8.1981,-8.1966,-8.1906,-8.2084,-8.1999,-8.2084,-8.2084,-8.2123,-8.2121,-8.2376,-8.2144,-8.2143,-8.2143,-8.2142,0,-8.1574,-8.1669,-8.166,-8.1724,-8.1829,-8.1808,-8.1911,-8.1922,-8.1949,-8.2013,-8.1971,-8.2032,-8.2009,-8.2067,-8.2056,-8.2153,-8.2167,-8.2166,-8.2162,-8.217,-8.2171,-8.219,-8.2178,-8.215,-8.2148,-8.2147,-8.2146,0,-8.1765,-8.1763,-8.1874,-8.1901,-8.191,-8.1986,-8.2008,-8.2068,-8.2068,-8.215,-8.2167,-8.2167,-8.2234,-8.2224,-8.2297,-8.229,-8.2411,-8.2393,-8.2401,-8.2396,-8.2481,-8.2473,-8.2758,-8.2794,-8.2539,-8.2541,-8.2543,0,-8.189,-8.1962,-8.1998,-8.204,-8.2062,-8.2128,-8.2167,-8.2149,-8.2191,-8.2236,-8.229,-8.2354,-8.2404,-8.2513,-8.2518,-8.2574,-8.2556,-8.2652,-8.2564,-8.257,-8.2557,-8.2554,-8.256,-8.2669,-8.2672,-8.2674,-8.2676,0,-8.2112,-8.2108,-8.2167,-8.2226,-8.2274,-8.2319,-8.2359,-8.2395,-8.238,-8.2429,-8.2499,-8.2538,-8.2614,-8.2677,-8.273,-8.2745,-8.2709,-8.2704,-8.2727,-8.2736,-8.2737,-8.2738,-8.2448,-8.2698,-8.2696,-8.2694,-8.2693,-8.2692,-8.2273,-8.2336,-8.2372,-8.2438,-8.2468,-8.2507,-8.2565,-8.2573,-8.2632,-8.2694,-8.2679,-8.2758,-8.2789,-8.2857,-8.2878,-8.2937,-8.2902,-8.2934,-8.2942,-8.2951,-8.2961,-8.2728,-8.2947,-8.2946,-8.2946,-8.2945,-8.2945,0,-8.2493,-8.2514,-8.2576,-8.2636,-8.2688,-8.2652,-8.2695,-8.274,-8.2811,-8.2845,-8.2896,-8.2975,-8.3037,-8.3047,-8.3105,-8.3151,-8.3136,-8.3167,-8.3163,-8.3167,-8.2989,-8.2965,-8.3178,-8.3178,-8.3178,-8.3178,-8.3178,-8.3178,-8.2614,-8.2718,-8.2718,-8.2835,-8.2854,-8.2933,-8.2961,-8.2996,-8.3023,-8.3115,-8.3167,-8.3174,-8.3198,-8.3258,-8.3312,-8.3313,-8.3336,-8.3374,-8.3369,-8.3203,-8.318,-8.3157,-8.3134,-8.3379,-8.338,-8.3541,-8.3543,-8.3544]}]]